Long Prairie, MN

3:56 AM CDT on March 26, 2017 (GMT -0500)
Long Prairie

Weather History for K14Y - October, 2012

Change the Weather History Date:

Monday, October 29, 2012

  Actual Average (KAXN) Record (KAXN)
Temperature  
Mean Temperature 38 °F -  
Max Temperature 44 °F 48 °F 72 °F (1950)
Min Temperature 33 °F 30 °F 17 °F (1964)
Degree Days  
Heating Degree Days 26    
Moisture  
Dew Point 26 °F    
Average Humidity 64    
Maximum Humidity 81    
Minimum Humidity 46    
Precipitation  
Precipitation 0.00 in - - ()
Sea Level Pressure  
Sea Level Pressure 30.23 in    
Wind  
Wind Speed 8 mph (ESE)    
Max Wind Speed 17 mph    
Max Gust Speed 22 mph    
Visibility 10 miles    
Events      
Averages and records for this station are not official NWS values.
T = Trace of Precipitation, MM = Missing Value Source: NWS Daily Summary

Daily Weather History Graph

Daily Weather History Graph

Search for Another Location

Airport or City:

Trip Planner

Search our weather history database for the weather conditions in past years. The results will help you decide how hot, cold, wet, or windy it might be!

Date:

Astronomy

Oct. 29, 2012 Rise Set
Actual Time 7:56 AM CDT 6:09 PM CDT
Civil Twilight 7:25 AM CDT 6:40 PM CDT
Nautical Twilight 6:50 AM CDT 7:15 PM CDT
Astronomical Twilight 6:15 AM CDT 7:49 PM CDT
Moon 5:59 PM CDT (10/29) 7:49 AM CDT (10/29)
Length of Visible Light 11h 14m
Length of Day
10h 13m
Full, 100% of the Moon is Illuminated
Oct 29
Full
Oct 29
Full
Nov 6
Last Quarter
Nov 13
New
Nov 20
First Quarter

Hourly Weather History & Observations

Time (CDT) Temp. Windchill Dew Point Humidity Pressure Visibility Wind Dir Wind Speed Gust Speed Precip Events Conditions
12:15 AM 33.8 °F 29.6 °F 28.4 °F 81% 30.24 in 10.0 mi ESE 4.6 mph - N/A   Overcast
12:35 AM 33.8 °F 28.6 °F 28.4 °F 81% 30.24 in 10.0 mi ESE 5.8 mph - N/A   Mostly Cloudy
12:55 AM 33.8 °F 28.6 °F 28.4 °F 81% 30.24 in 10.0 mi ESE 5.8 mph - N/A   Mostly Cloudy
1:15 AM 33.8 °F 28.6 °F 28.4 °F 81% 30.24 in 10.0 mi ESE 5.8 mph - N/A   Overcast
1:35 AM 33.8 °F 29.6 °F 28.4 °F 81% 30.23 in 10.0 mi ESE 4.6 mph - N/A   Overcast
1:55 AM 33.8 °F 30.8 °F 28.4 °F 81% 30.24 in 10.0 mi ESE 3.5 mph - N/A   Overcast
2:15 AM 33.8 °F 29.6 °F 28.4 °F 81% 30.24 in 10.0 mi ESE 4.6 mph - N/A   Overcast
2:35 AM 33.8 °F 29.6 °F 28.4 °F 81% 30.25 in 10.0 mi SE 4.6 mph - N/A   Overcast
2:55 AM 33.8 °F 28.6 °F 28.4 °F 81% 30.24 in 10.0 mi ESE 5.8 mph - N/A   Overcast
3:15 AM 33.8 °F 26.4 °F 28.4 °F 81% 30.24 in 10.0 mi ESE 9.2 mph - N/A   Overcast
3:35 AM 33.8 °F 27.7 °F 26.6 °F 75% 30.24 in 10.0 mi ESE 6.9 mph - N/A   Mostly Cloudy
4:15 AM 33.8 °F 25.8 °F 26.6 °F 75% 30.23 in 10.0 mi SE 10.4 mph - N/A   Overcast
4:35 AM 33.8 °F 25.3 °F 26.6 °F 75% 30.23 in 10.0 mi SE 11.5 mph 16.1 mph N/A   Overcast
4:55 AM 33.8 °F 25.8 °F 24.8 °F 70% 30.23 in 10.0 mi SE 10.4 mph - N/A   Overcast
5:15 AM 33.8 °F 25.3 °F 24.8 °F 70% 30.23 in 10.0 mi SE 11.5 mph - N/A   Overcast
5:55 AM 33.8 °F 26.4 °F 24.8 °F 70% 30.22 in 10.0 mi ESE 9.2 mph - N/A   Overcast
6:15 AM 33.8 °F 25.8 °F 23.0 °F 65% 30.22 in 10.0 mi ESE 10.4 mph - N/A   Overcast
6:35 AM 33.8 °F 26.4 °F 24.8 °F 70% 30.22 in 10.0 mi SE 9.2 mph - N/A   Mostly Cloudy
7:15 AM 33.8 °F 27.0 °F 23.0 °F 65% 30.23 in 10.0 mi SE 8.1 mph - N/A   Overcast
8:35 AM 33.8 °F 26.4 °F 23.0 °F 65% 30.23 in 10.0 mi ESE 9.2 mph - N/A   Overcast
8:55 AM 35.6 °F 29.2 °F 23.0 °F 60% 30.24 in 10.0 mi ESE 8.1 mph - N/A   Overcast
9:15 AM 35.6 °F 29.2 °F 23.0 °F 60% 30.24 in 10.0 mi ESE 8.1 mph - N/A   Overcast
9:35 AM 35.6 °F 27.5 °F 23.0 °F 60% 30.24 in 10.0 mi ESE 11.5 mph - N/A   Overcast
9:55 AM 35.6 °F 29.9 °F 23.0 °F 60% 30.24 in 10.0 mi ESE 6.9 mph - N/A   Overcast
10:15 AM 35.6 °F 28.6 °F 23.0 °F 60% 30.24 in 10.0 mi ESE 9.2 mph - N/A   Overcast
10:35 AM 37.4 °F 30.8 °F 23.0 °F 56% 30.24 in 10.0 mi ESE 9.2 mph - N/A   Overcast
10:55 AM 37.4 °F 30.8 °F 23.0 °F 56% 30.25 in 10.0 mi ESE 9.2 mph - N/A   Overcast
11:15 AM 37.4 °F 29.8 °F 23.0 °F 56% 30.25 in 10.0 mi ESE 11.5 mph - N/A   Overcast
11:35 AM 39.2 °F 31.6 °F 23.0 °F 52% 30.25 in 10.0 mi SE 12.7 mph - N/A   Overcast
11:55 AM 39.2 °F 30.8 °F 23.0 °F 52% 30.25 in 10.0 mi ESE 15.0 mph 19.6 mph N/A   Overcast
12:15 PM 39.2 °F 30.2 °F 23.0 °F 52% 30.24 in 10.0 mi SE 17.3 mph 20.7 mph N/A   Overcast
12:35 PM 41.0 °F 32.8 °F 24.8 °F 53% 30.24 in 10.0 mi SE 16.1 mph - N/A   Overcast
12:55 PM 41.0 °F 33.1 °F 24.8 °F 53% 30.24 in 10.0 mi SE 15.0 mph 18.4 mph N/A   Overcast
1:15 PM 42.8 °F 35.1 °F 26.6 °F 53% 30.23 in 10.0 mi SE 16.1 mph - N/A   Overcast
1:55 PM 44.6 °F 38.4 °F 26.6 °F 49% 30.23 in 10.0 mi ESE 12.7 mph 20.7 mph N/A   Overcast
2:15 PM 42.8 °F 36.6 °F 24.8 °F 49% 30.22 in 10.0 mi ESE 11.5 mph 17.3 mph N/A   Overcast
2:35 PM 42.8 °F 36.6 °F 24.8 °F 49% 30.22 in 10.0 mi ESE 11.5 mph 17.3 mph N/A   Overcast
2:55 PM 42.8 °F 36.2 °F 24.8 °F 49% 30.22 in 10.0 mi ESE 12.7 mph 19.6 mph N/A   Overcast
3:15 PM 42.8 °F 35.4 °F 23.0 °F 46% 30.21 in 10.0 mi ESE 15.0 mph 21.9 mph N/A   Overcast
3:35 PM 42.8 °F 36.2 °F 24.8 °F 49% 30.21 in 10.0 mi ESE 12.7 mph 18.4 mph N/A   Overcast
3:55 PM 42.8 °F 35.8 °F 24.8 °F 49% 30.21 in 10.0 mi ESE 13.8 mph 19.6 mph N/A   Overcast
4:15 PM 42.8 °F 35.8 °F 24.8 °F 49% 30.20 in 10.0 mi East 13.8 mph 17.3 mph N/A   Overcast
4:35 PM 42.8 °F 36.2 °F 26.6 °F 53% 30.20 in 10.0 mi East 12.7 mph 18.4 mph N/A   Overcast
4:55 PM 42.8 °F 35.4 °F 24.8 °F 49% 30.20 in 10.0 mi East 15.0 mph 18.4 mph N/A   Overcast
5:15 PM 42.8 °F 36.2 °F 26.6 °F 53% 30.20 in 10.0 mi East 12.7 mph 19.6 mph N/A   Overcast
5:35 PM 42.8 °F 36.6 °F 24.8 °F 49% 30.20 in 10.0 mi ESE 11.5 mph 18.4 mph N/A   Overcast
5:55 PM 41.0 °F 35.8 °F 26.6 °F 57% 30.21 in 10.0 mi ESE 8.1 mph - N/A   Overcast
6:15 PM 39.2 °F 35.9 °F 26.6 °F 61% 30.21 in 10.0 mi ESE 4.6 mph - N/A   Overcast
6:35 PM 39.2 °F 34.2 °F 26.6 °F 61% 30.22 in 10.0 mi East 6.9 mph - N/A   Mostly Cloudy
6:55 PM 37.4 °F 31.4 °F 28.4 °F 70% 30.22 in 10.0 mi East 8.1 mph - N/A   Overcast
7:15 PM 37.4 °F 31.4 °F 28.4 °F 70% 30.23 in 10.0 mi East 8.1 mph - N/A   Overcast
7:35 PM 37.4 °F 32.8 °F 28.4 °F 70% 30.22 in 10.0 mi East 5.8 mph - N/A   Overcast
10:55 PM 33.8 °F 27.7 °F 26.6 °F 75% 30.22 in 10.0 mi East 6.9 mph - N/A   Clear
11:15 PM 33.8 °F 27.7 °F 26.6 °F 75% 30.22 in 10.0 mi East 6.9 mph - N/A   Clear
11:35 PM 33.8 °F 27.7 °F 26.6 °F 75% 30.22 in 10.0 mi East 6.9 mph - N/A   Clear